Location: Unspecified
(51.0000°N, 12.0000°E)
Time: 13:26:55
(UTC+01:00)

ISS - Pass Details

Date: 11 November 2017
Orbit: 402 x 407 km, 51.6° (Epoch: 19 November)

Event Time Altitude Azimuth Distance (km) Brightness Sun altitude
Exits shadow 06:42:44 - 279° (W) 1,600 -1.5 -6.4°
Reaches altitude 10° 06:43:05 10° 278° (W) 1,458 -1.7 -6.4°
Maximum altitude 06:46:10 39° 207° (SSW) 614 -3.0 -5.9°
Drops below altitude 10° 06:49:14 10° 137° (SE) 1,452 0.2 -5.5°
Sets 06:51:23 0° 129° (SE) 2,309 1.7 -5.2°
